星链-1293 (STARLINK-1293 )

导读 | 星芒AI

STARLINK-1293 是 SpaceX Starlink 卫星互联网项目中的一颗低轨卫星,属于第 12 批部署的星链卫星之一。该卫星于 2020 年 11 月发射,运行在约 550 公里的轨道高度,旨在为全球提供高速互联网服务。它采用先进的相控阵天线和激光通信技术,支持高带宽、低延迟的网络连接。作为星链星座的一部分,STARLINK-1293 有助于扩大覆盖范围,提升网络性能,并推动偏远地区的数字化发展。

基本信息
目录编号:
45411
目录名称:
STARLINK-1293
国际标识:
2020-019BD
轨道中心:
EARTH
卫星名称:
星链-1293
卫星全名:
星链-1293 (STARLINK-1293 )
卫星状态:
已陨落 最后检测时间 2025-04-05
发射日期:
2020-03-18 UTC
国别 :
美国 (US)
星等 :
--
轨道信息
数据来源 国际轨道数据
星历时间: 2025-04-05T01:21:34+0800
轨道信息已过期255天
半长轴: 6549.921km
偏心率: 0.000792
轨道倾角: 53.016°
近地点辐角 339.109°
升交点赤经 187.608°
平近点角 147.755°
近地点: 166.598km
远地点: 176.974km
周期: 87.925分钟
每日圈数: 16.377542
详细信息
固有亮度:
5
最大亮度:
2.5
卫星平台:
Starlink V1.0
覆盖范围:
全球
运营商:
太空探索技术公司
运营商所在国:
美国
制造商(研发单位):
太空探索技术公司
制造商所在国:
美国
使用方式:
暂无
卫星简介
星链(Starlink)计划是由太空探索技术公司(SpaceX)提出的一个巨型低轨卫星互联网星座项目,计划在2019年至2024年间在太空搭建由约1.2万颗卫星组成的“星链”网络,其中1584颗将部署在地球上空550千米处的近地轨道,并从2020年开始工作。该卫星仍在工作。